Weather History for Winnemucca, NV

Change the Weather History Date:

Tuesday, November 6, 2012

  Actual Average Record
Temperature  
Mean Temperature 48 °F 40 °F  
Max Temperature 72 °F 56 °F 76 °F (1976)
Min Temperature 24 °F 25 °F 2 °F (1971)
Degree Days  
Heating Degree Days 17 25  
Month to date heating degree days 116 143  
Since 1 July heating degree days 655 868  
Cooling Degree Days 0 0  
Month to date cooling degree days 0 0  
Year to date cooling degree days 681 541  
Moisture  
Dew Point 27 °F    
Average Humidity 55    
Maximum Humidity 88    
Minimum Humidity 22    
Precipitation  
Precipitation 0.00 in 0.03 in 0.50 in (1912)
Month to date precipitation T 0.16  
Year to date precipitation 3.94 6.63  
Snow  
Snow 0.00 in 0.00 in 1.90 in (2011)
Month to date snowfall 0.0 0.2  
Since 1 July snowfall 1.3 0.7  
Since 1 September snowfall 1.3 0.7  
Snow Depth 0.00 in    
Sea Level Pressure  
Sea Level Pressure 30.21 in    
Wind  
Wind Speed 4 mph (SE)    
Max Wind Speed 13 mph    
Max Gust Speed 15 mph    
Visibility 10 miles    
Events      
T = Trace of Precipitation, MM = Missing Value Source: NWS Daily Summary

Daily Weather History Graph

Daily Weather History Graph

Search for Another Location

Airport:

Trip Planner

Search our weather history database for the weather conditions in past years. The results will help you decide how hot, cold, wet, or windy it might be!

Date:

Astronomy

Nov. 06, 2012 Rise Set
Actual Time 6:28 AM PST 4:40 PM PST
Civil Twilight 5:59 AM PST 5:09 PM PST
Nautical Twilight 5:26 AM PST 5:42 PM PST
Astronomical Twilight 4:54 AM PST 6:14 PM PST
Moon 11:25 PM PST (11/6) 12:22 PM PST (11/6)
Length of Visible Light 11h 10m
Length of Day
10h 12m
Waning Gibbous, 52% of the Moon is Illuminated
Nov 6
Waning Gibbous
Nov 6
Last Quarter
Nov 13
New
Nov 20
First Quarter
Nov 28
Full

Hourly Weather History & Observations

Time (PST) Temp. Windchill Dew Point Humidity Pressure Visibility Wind Dir Wind Speed Gust Speed Precip Events Conditions
12:56 AM 32.0 °F - 26.1 °F 79% 30.30 in 10.0 mi Calm Calm - N/A   Clear
1:56 AM 27.0 °F 23.0 °F 23.0 °F 85% 30.30 in 10.0 mi SSW 3.5 mph - N/A   Clear
2:56 AM 28.9 °F 25.2 °F 24.1 °F 82% 30.28 in 10.0 mi ESE 3.5 mph - N/A   Clear
3:56 AM 28.9 °F - 24.1 °F 82% 30.29 in 10.0 mi Calm Calm - N/A   Clear
4:56 AM 27.0 °F 20.5 °F 23.0 °F 85% 30.32 in 10.0 mi SE 5.8 mph - N/A   Clear
5:56 AM 25.0 °F - 21.0 °F 85% 30.35 in 10.0 mi Calm Calm - N/A   Clear
6:56 AM 26.1 °F 19.4 °F 23.0 °F 88% 30.36 in 10.0 mi SE 5.8 mph - N/A   Clear
7:56 AM 43.0 °F - 30.0 °F 60% 30.33 in 10.0 mi Calm Calm - N/A   Clear
8:56 AM 51.1 °F - 32.0 °F 48% 30.30 in 10.0 mi NE 4.6 mph - N/A   Clear
9:56 AM 57.9 °F - 30.9 °F 36% 30.27 in 10.0 mi ENE 4.6 mph - N/A   Clear
10:56 AM 62.1 °F - 30.9 °F 31% 30.25 in 10.0 mi Variable 4.6 mph - N/A   Clear
11:56 AM 66.0 °F - 30.0 °F 26% 30.19 in 10.0 mi Calm Calm - N/A   Clear
12:56 PM 69.1 °F - 30.9 °F 24% 30.16 in 10.0 mi WNW 4.6 mph - N/A   Clear
1:56 PM 70.0 °F - 30.0 °F 23% 30.14 in 10.0 mi Variable 3.5 mph - N/A   Clear
2:56 PM 72.0 °F - 30.0 °F 21% 30.12 in 10.0 mi SSW 5.8 mph - N/A   Clear
3:56 PM 70.0 °F - 28.9 °F 22% 30.11 in 10.0 mi West 3.5 mph - N/A   Clear
4:56 PM 55.9 °F - 28.0 °F 34% 30.14 in 10.0 mi SW 6.9 mph - N/A   Clear
5:56 PM 48.9 °F - 28.9 °F 46% 30.17 in 10.0 mi SSE 9.2 mph - N/A   Clear
6:56 PM 52.0 °F - 28.9 °F 41% 30.17 in 10.0 mi South 9.2 mph - N/A   Clear
7:56 PM 53.1 °F - 28.0 °F 38% 30.12 in 10.0 mi South 10.4 mph - N/A   Clear
8:56 PM 43.0 °F 41.3 °F 27.0 °F 53% 30.14 in 10.0 mi ENE 3.5 mph - N/A   Clear
9:56 PM 42.1 °F 38.4 °F 26.1 °F 53% 30.12 in 10.0 mi SE 5.8 mph - N/A   Clear
10:56 PM 37.0 °F 32.4 °F 25.0 °F 62% 30.12 in 10.0 mi ESE 5.8 mph - N/A   Clear
11:56 PM 37.0 °F 32.4 °F 24.1 °F 59% 30.09 in 10.0 mi East 5.8 mph - N/A   Clear